Multibeam Report for CNTL13RR


Ship Name: Roger Revelle
Chief Scientist: Michaels, Anthony
University of Southern California
Source Organization: University of California, Scripps Institution of Oceanography (UC/SIO)
Start Date: 2003-07-14
End Date: 2003-08-22


View ISO Metadata

Visit the full NCEI Bathymetry Viewer


Multibeam Bathymetry

Cruise Details

Project: Centennial Expedition
Instrument: Simrad EM120

Data Quality

Number of Files: 770
Number of Records: 138196
BATHYMETRY DATA Quantity Percentage
Number of Beams 26395245 100%
Number of Good Beams 24664561 93.44%
Number of Zero Beams 1730684 6.56%
Number of Flagged Beams 0 0%
AMPLITUDE DATA Quantity Percentage
Number of Beams 26395245 100%
Number of Good Beams 24664561 93.44%
Number of Zero Beams 1730684 6.56%
Number of Flagged Beams 0 0%
SIDESCAN DATA Quantity Percentage
Number of Pixels 141511680 100%
Number of Good Pixels 91540846 64.69%
Number of Zero Pixels 49970834 35.31%
Number of Flagged Pixels 0 0%

Navigation Totals

Total Time: 405.4056 hours
Total Track Length: 8245.0591 km
Average Speed: 20.338 km/hr (10.9816 knots)

Cruise Bounds

Northern Extent: 27.998686
Southern Extent: 18.498281
Western Extent: 169.93265
Eastern Extent: -154.82265

Limits

Minimum Sonar Depth 2.54 Maximum Sonar Depth 6553.6001
Minimum Altitude 0 Maximum Altitude 7047.8398
Minimum Depth 7.36 Maximum Depth 7340.73
Minimum Amplitude 0.5 Maximum Amplitude 106.5
Minimum Sidescan 0.01 Maximum Sidescan 119.27

File Information

Full Resolution Bathymetry as collected (raw): 384

Files File Size Description
0001_20030714_022301p.mb57.gz 10.54MB Simrad multibeam processing format
0001_20030714_032449p.mb57.gz 8.79MB Simrad multibeam processing format
0001_20030714_042637p.mb57.gz 8.47MB Simrad multibeam processing format
0001_20030714_052825p.mb57.gz 7.72MB Simrad multibeam processing format
0001_20030714_063013p.mb57.gz 8.35MB Simrad multibeam processing format
0001_20030714_073201p.mb57.gz 9.25MB Simrad multibeam processing format
0001_20030714_083349p.mb57.gz 9.19MB Simrad multibeam processing format
0001_20030714_093537p.mb57.gz 8.79MB Simrad multibeam processing format
0001_20030714_103725p.mb57.gz 8.61MB Simrad multibeam processing format
0001_20030714_113913p.mb57.gz 8.20MB Simrad multibeam processing format
0001_20030714_124101p.mb57.gz 8.05MB Simrad multibeam processing format
0001_20030714_134249p.mb57.gz 8.06MB Simrad multibeam processing format
0001_20030714_144437p.mb57.gz 8.10MB Simrad multibeam processing format
0001_20030720_222436p.mb57.gz 327.1KB Simrad multibeam processing format
0001_20030720_223234p.mb57.gz 6.22MB Simrad multibeam processing format
0001_20030729_061944p.mb57.gz 0.64MB Simrad multibeam processing format
0001_20030822_023323p.mb57.gz 5.26MB Simrad multibeam processing format
0001_20030822_033623p.mb57.gz 5.23MB Simrad multibeam processing format
0001_20030822_043923p.mb57.gz 5.29MB Simrad multibeam processing format
0001_20030822_054223p.mb57.gz 5.26MB Simrad multibeam processing format
0001_20030822_064523p.mb57.gz 5.15MB Simrad multibeam processing format
0001_20030822_074823p.mb57.gz 5.11MB Simrad multibeam processing format
0001_20030822_085123p.mb57.gz 5.24MB Simrad multibeam processing format
0001_20030822_095423p.mb57.gz 5.21MB Simrad multibeam processing format
0001_20030822_105723p.mb57.gz 5.13MB Simrad multibeam processing format
0001_20030822_120023p.mb57.gz 5.25MB Simrad multibeam processing format
0001_20030822_130323p.mb57.gz 5.42MB Simrad multibeam processing format
0001_20030822_140623p.mb57.gz 5.45MB Simrad multibeam processing format
0001_20030822_150923p.mb57.gz 5.61MB Simrad multibeam processing format
0001_20030822_161223p.mb57.gz 5.55MB Simrad multibeam processing format
0002_20030715_001630p.mb57.gz 14.31MB Simrad multibeam processing format
0002_20030729_063731p.mb57.gz 5.28MB Simrad multibeam processing format
0002_20030729_073731p.mb57.gz 5.26MB Simrad multibeam processing format
0002_20030729_083731p.mb57.gz 5.29MB Simrad multibeam processing format
0002_20030729_093731p.mb57.gz 5.19MB Simrad multibeam processing format
0002_20030729_103731p.mb57.gz 5.20MB Simrad multibeam processing format
0002_20030729_113731p.mb57.gz 5.10MB Simrad multibeam processing format
0002_20030729_123731p.mb57.gz 5.15MB Simrad multibeam processing format
0002_20030729_133731p.mb57.gz 5.16MB Simrad multibeam processing format
0002_20030729_143731p.mb57.gz 5.15MB Simrad multibeam processing format
0002_20030729_153731p.mb57.gz 5.18MB Simrad multibeam processing format
0002_20030729_163731p.mb57.gz 5.19MB Simrad multibeam processing format
0002_20030729_173943p.mb57.gz 5.22MB Simrad multibeam processing format
0002_20030729_183731p.mb57.gz 5.21MB Simrad multibeam processing format
0002_20030729_193731p.mb57.gz 3.55MB Simrad multibeam processing format
0002_20030822_171724p.mb57.gz 272.0KB Simrad multibeam processing format
0003_20030715_030439p.mb57.gz 5.24MB Simrad multibeam processing format
0003_20030715_040546p.mb57.gz 5.22MB Simrad multibeam processing format
0003_20030715_050653p.mb57.gz 5.24MB Simrad multibeam processing format
0003_20030715_060800p.mb57.gz 5.20MB Simrad multibeam processing format
0003_20030715_070907p.mb57.gz 5.22MB Simrad multibeam processing format
0003_20030715_081014p.mb57.gz 5.22MB Simrad multibeam processing format
0003_20030715_091121p.mb57.gz 5.27MB Simrad multibeam processing format
0003_20030715_101228p.mb57.gz 5.25MB Simrad multibeam processing format
0003_20030715_111335p.mb57.gz 5.29MB Simrad multibeam processing format
0003_20030715_121442p.mb57.gz 5.30MB Simrad multibeam processing format
0003_20030715_131549p.mb57.gz 5.26MB Simrad multibeam processing format
0003_20030715_141656p.mb57.gz 5.21MB Simrad multibeam processing format
0003_20030715_151803p.mb57.gz 5.31MB Simrad multibeam processing format
0003_20030715_161910p.mb57.gz 5.37MB Simrad multibeam processing format
0003_20030715_172017p.mb57.gz 5.50MB Simrad multibeam processing format
0003_20030715_182124p.mb57.gz 5.29MB Simrad multibeam processing format
0003_20030721_220924p.mb57.gz 111.5KB Simrad multibeam processing format
0003_20030729_202043p.mb57.gz 36.82MB Simrad multibeam processing format
0003_20030810_062124p.mb57.gz 4.39MB Simrad multibeam processing format
0004_20030721_221052p.mb57.gz 13.88MB Simrad multibeam processing format
0004_20030730_032837p.mb57.gz 8.10MB Simrad multibeam processing format
0004_20030810_065243p.mb57.gz 5.54MB Simrad multibeam processing format
0004_20030810_075243p.mb57.gz 5.23MB Simrad multibeam processing format
0004_20030810_085243p.mb57.gz 5.33MB Simrad multibeam processing format
0004_20030810_095243p.mb57.gz 5.21MB Simrad multibeam processing format
0004_20030810_105243p.mb57.gz 5.40MB Simrad multibeam processing format
0004_20030810_115243p.mb57.gz 5.40MB Simrad multibeam processing format
0004_20030810_125243p.mb57.gz 5.30MB Simrad multibeam processing format
0004_20030810_135243p.mb57.gz 5.30MB Simrad multibeam processing format
0004_20030810_145243p.mb57.gz 5.46MB Simrad multibeam processing format
0004_20030822_194557p.mb57.gz 10.09MB Simrad multibeam processing format
0005_20030715_192328p.mb57.gz 10.45MB Simrad multibeam processing format
0005_20030715_202328p.mb57.gz 10.17MB Simrad multibeam processing format
0005_20030715_212328p.mb57.gz 10.17MB Simrad multibeam processing format
0005_20030715_222328p.mb57.gz 10.20MB Simrad multibeam processing format
0005_20030715_232328p.mb57.gz 10.60MB Simrad multibeam processing format
0005_20030715_242328p.mb57.gz 7.80MB Simrad multibeam processing format
0005_20030723_204700p.mb57.gz 17.54MB Simrad multibeam processing format
0005_20030723_204703p.mb57.gz 4.37MB Simrad multibeam processing format
0005_20030723_214703p.mb57.gz 4.36MB Simrad multibeam processing format
0005_20030723_224703p.mb57.gz 4.39MB Simrad multibeam processing format
0005_20030723_234703p.mb57.gz 4.40MB Simrad multibeam processing format
0005_20030730_063744p.mb57.gz 6.90MB Simrad multibeam processing format
0005_20030730_073744p.mb57.gz 6.50MB Simrad multibeam processing format
0005_20030730_083744p.mb57.gz 6.92MB Simrad multibeam processing format
0005_20030730_093744p.mb57.gz 6.34MB Simrad multibeam processing format
0005_20030730_103744p.mb57.gz 6.32MB Simrad multibeam processing format
0005_20030730_113744p.mb57.gz 6.34MB Simrad multibeam processing format
0005_20030730_123744p.mb57.gz 6.50MB Simrad multibeam processing format
0005_20030730_133744p.mb57.gz 7.87MB Simrad multibeam processing format
0005_20030730_143744p.mb57.gz 9.15MB Simrad multibeam processing format
0005_20030812_033516p.mb57.gz 12.32MB Simrad multibeam processing format
0006_20030716_054753p.mb57.gz 17.3KB Simrad multibeam processing format
0006_20030730_161206p.mb57.gz 19.55MB Simrad multibeam processing format
0006_20030812_054844p.mb57.gz 5.46MB Simrad multibeam processing format
0006_20030812_064844p.mb57.gz 5.41MB Simrad multibeam processing format
0006_20030812_074844p.mb57.gz 5.38MB Simrad multibeam processing format
0006_20030812_084844p.mb57.gz 5.32MB Simrad multibeam processing format
0006_20030812_094844p.mb57.gz 5.31MB Simrad multibeam processing format
0006_20030812_104844p.mb57.gz 5.30MB Simrad multibeam processing format
0006_20030812_114844p.mb57.gz 5.28MB Simrad multibeam processing format
0006_20030812_124844p.mb57.gz 5.34MB Simrad multibeam processing format
0006_20030812_134844p.mb57.gz 5.37MB Simrad multibeam processing format
0006_20030812_144844p.mb57.gz 5.30MB Simrad multibeam processing format
0007_20030726_080921p.mb57.gz 6.90MB Simrad multibeam processing format
0007_20030726_090921p.mb57.gz 6.64MB Simrad multibeam processing format
0007_20030726_100921p.mb57.gz 6.69MB Simrad multibeam processing format
0007_20030726_110921p.mb57.gz 6.69MB Simrad multibeam processing format
0007_20030726_120921p.mb57.gz 6.70MB Simrad multibeam processing format
0007_20030726_130921p.mb57.gz 6.62MB Simrad multibeam processing format
0007_20030726_140921p.mb57.gz 1.62MB Simrad multibeam processing format
0007_20030731_001306p.mb57.gz 7.81MB Simrad multibeam processing format
0007_20030814_043754p.mb57.gz 6.64MB Simrad multibeam processing format
0008_20030716_054815p.mb57.gz 7.60MB Simrad multibeam processing format
0008_20030716_064815p.mb57.gz 7.62MB Simrad multibeam processing format
0008_20030716_074815p.mb57.gz 7.03MB Simrad multibeam processing format
0008_20030716_084815p.mb57.gz 6.95MB Simrad multibeam processing format
0008_20030716_094815p.mb57.gz 6.93MB Simrad multibeam processing format
0008_20030716_104815p.mb57.gz 7.31MB Simrad multibeam processing format
0008_20030716_114815p.mb57.gz 7.02MB Simrad multibeam processing format
0008_20030716_124815p.mb57.gz 6.99MB Simrad multibeam processing format
0008_20030716_134815p.mb57.gz 7.44MB Simrad multibeam processing format
0008_20030716_144815p.mb57.gz 7.72MB Simrad multibeam processing format
0008_20030716_154815p.mb57.gz 7.47MB Simrad multibeam processing format
0008_20030716_164815p.mb57.gz 5.86MB Simrad multibeam processing format
0008_20030726_172257p.mb57.gz 4.16MB Simrad multibeam processing format
0008_20030731_033119p.mb57.gz 1.62MB Simrad multibeam processing format
0008_20030814_055227p.mb57.gz 5.35MB Simrad multibeam processing format
0008_20030814_065227p.mb57.gz 5.28MB Simrad multibeam processing format
0008_20030814_075227p.mb57.gz 5.26MB Simrad multibeam processing format
0008_20030814_085227p.mb57.gz 5.36MB Simrad multibeam processing format
0008_20030814_095227p.mb57.gz 5.37MB Simrad multibeam processing format
0008_20030814_105227p.mb57.gz 5.36MB Simrad multibeam processing format
0008_20030814_115227p.mb57.gz 5.42MB Simrad multibeam processing format
0008_20030814_125227p.mb57.gz 5.42MB Simrad multibeam processing format
0008_20030814_135227p.mb57.gz 5.42MB Simrad multibeam processing format
0008_20030814_145227p.mb57.gz 4.30MB Simrad multibeam processing format
0009_20030726_181932p.mb57.gz 4.09MB Simrad multibeam processing format
0009_20030731_035041p.mb57.gz 12.77MB Simrad multibeam processing format
0009_20030815_040558p.mb57.gz 5.29MB Simrad multibeam processing format
0009_20030815_050558p.mb57.gz 5.13MB Simrad multibeam processing format
0009_20030815_060558p.mb57.gz 5.10MB Simrad multibeam processing format
0009_20030815_070558p.mb57.gz 4.93MB Simrad multibeam processing format
0009_20030815_080558p.mb57.gz 4.98MB Simrad multibeam processing format
0009_20030815_090558p.mb57.gz 5.02MB Simrad multibeam processing format
0009_20030815_100558p.mb57.gz 4.93MB Simrad multibeam processing format
0009_20030815_110558p.mb57.gz 4.94MB Simrad multibeam processing format
0009_20030815_120558p.mb57.gz 5.11MB Simrad multibeam processing format
0009_20030815_130558p.mb57.gz 5.18MB Simrad multibeam processing format
0009_20030815_140558p.mb57.gz 5.22MB Simrad multibeam processing format
0009_20030815_150558p.mb57.gz 2.65MB Simrad multibeam processing format
0010_20030716_180714p.mb57.gz 33.10MB Simrad multibeam processing format
0010_20030727_020300p.mb57.gz 4.39MB Simrad multibeam processing format
0010_20030727_030000p.mb57.gz 4.74MB Simrad multibeam processing format
0010_20030727_040000p.mb57.gz 4.52MB Simrad multibeam processing format
0010_20030727_050000p.mb57.gz 4.70MB Simrad multibeam processing format
0010_20030727_060000p.mb57.gz 4.65MB Simrad multibeam processing format
0010_20030727_070000p.mb57.gz 4.57MB Simrad multibeam processing format
0010_20030727_080000p.mb57.gz 4.82MB Simrad multibeam processing format
0010_20030727_090000p.mb57.gz 4.72MB Simrad multibeam processing format
0010_20030727_100000p.mb57.gz 4.53MB Simrad multibeam processing format
0010_20030727_110000p.mb57.gz 4.71MB Simrad multibeam processing format
0010_20030727_120000p.mb57.gz 4.61MB Simrad multibeam processing format
0010_20030727_130000p.mb57.gz 4.40MB Simrad multibeam processing format
0010_20030727_140000p.mb57.gz 4.56MB Simrad multibeam processing format
0010_20030727_150000p.mb57.gz 4.80MB Simrad multibeam processing format
0010_20030727_160000p.mb57.gz 4.65MB Simrad multibeam processing format
0010_20030727_170000p.mb57.gz 4.51MB Simrad multibeam processing format
0010_20030727_180000p.mb57.gz 5.99MB Simrad multibeam processing format
0010_20030731_070307p.mb57.gz 7.76MB Simrad multibeam processing format
0010_20030731_080307p.mb57.gz 7.84MB Simrad multibeam processing format
0010_20030731_090307p.mb57.gz 8.57MB Simrad multibeam processing format
0010_20030731_100307p.mb57.gz 8.59MB Simrad multibeam processing format
0010_20030731_110307p.mb57.gz 8.33MB Simrad multibeam processing format
0010_20030731_120307p.mb57.gz 7.85MB Simrad multibeam processing format
0010_20030731_130307p.mb57.gz 8.23MB Simrad multibeam processing format
0010_20030731_140307p.mb57.gz 8.49MB Simrad multibeam processing format
0010_20030731_150307p.mb57.gz 8.68MB Simrad multibeam processing format
0010_20030731_160307p.mb57.gz 8.39MB Simrad multibeam processing format
0010_20030731_170307p.mb57.gz 7.89MB Simrad multibeam processing format
0010_20030731_180307p.mb57.gz 8.65MB Simrad multibeam processing format
0010_20030731_190307p.mb57.gz 1.05MB Simrad multibeam processing format
0011_20030716_195453p.mb57.gz 25.88MB Simrad multibeam processing format
0011_20030801_032740p.mb57.gz 5.38MB Simrad multibeam processing format
0011_20030801_042740p.mb57.gz 5.33MB Simrad multibeam processing format
0011_20030801_052740p.mb57.gz 5.23MB Simrad multibeam processing format
0011_20030801_062740p.mb57.gz 5.19MB Simrad multibeam processing format
0011_20030801_072740p.mb57.gz 5.27MB Simrad multibeam processing format
0011_20030801_082740p.mb57.gz 5.32MB Simrad multibeam processing format
0011_20030801_092740p.mb57.gz 5.39MB Simrad multibeam processing format
0011_20030801_102740p.mb57.gz 5.30MB Simrad multibeam processing format
0011_20030801_112740p.mb57.gz 5.24MB Simrad multibeam processing format
0011_20030801_122740p.mb57.gz 5.29MB Simrad multibeam processing format
0011_20030801_132740p.mb57.gz 5.27MB Simrad multibeam processing format
0011_20030801_142740p.mb57.gz 5.29MB Simrad multibeam processing format
0011_20030801_152740p.mb57.gz 5.29MB Simrad multibeam processing format
0011_20030801_162740p.mb57.gz 5.23MB Simrad multibeam processing format
0011_20030816_203528p.mb57.gz 6.36MB Simrad multibeam processing format
0011_20030816_213528p.mb57.gz 6.49MB Simrad multibeam processing format
0011_20030816_223528p.mb57.gz 6.48MB Simrad multibeam processing format
0011_20030816_233528p.mb57.gz 21.1KB Simrad multibeam processing format
0011_20030816_243528p.mb57.gz 3.46MB Simrad multibeam processing format
0012_20030716_234623p.mb57.gz 1.44MB Simrad multibeam processing format
0012_20030729_013712p.mb57.gz 4.99MB Simrad multibeam processing format
0012_20030817_045531p.mb57.gz 20.10MB Simrad multibeam processing format
0013_20030802_041039p.mb57.gz 5.10MB Simrad multibeam processing format
0013_20030802_051039p.mb57.gz 5.20MB Simrad multibeam processing format
0013_20030802_061039p.mb57.gz 5.14MB Simrad multibeam processing format
0013_20030802_071039p.mb57.gz 5.19MB Simrad multibeam processing format
0013_20030802_081039p.mb57.gz 5.17MB Simrad multibeam processing format
0013_20030802_091039p.mb57.gz 5.15MB Simrad multibeam processing format
0013_20030802_101039p.mb57.gz 5.15MB Simrad multibeam processing format
0013_20030802_111039p.mb57.gz 5.21MB Simrad multibeam processing format
0013_20030802_121039p.mb57.gz 5.14MB Simrad multibeam processing format
0013_20030802_131039p.mb57.gz 5.25MB Simrad multibeam processing format
0013_20030802_141039p.mb57.gz 5.22MB Simrad multibeam processing format
0013_20030802_151039p.mb57.gz 5.28MB Simrad multibeam processing format
0013_20030802_161039p.mb57.gz 5.24MB Simrad multibeam processing format
0013_20030802_171039p.mb57.gz 4.21MB Simrad multibeam processing format
0013_20030817_083726p.mb57.gz 6.32MB Simrad multibeam processing format
0013_20030817_093726p.mb57.gz 5.98MB Simrad multibeam processing format
0013_20030817_103726p.mb57.gz 6.24MB Simrad multibeam processing format
0013_20030817_113726p.mb57.gz 6.80MB Simrad multibeam processing format
0013_20030817_123726p.mb57.gz 6.33MB Simrad multibeam processing format
0013_20030817_133726p.mb57.gz 6.40MB Simrad multibeam processing format
0013_20030817_143726p.mb57.gz 4.49MB Simrad multibeam processing format
0014_20030818_035326p.mb57.gz 4.96MB Simrad multibeam processing format
0014_20030818_045326p.mb57.gz 5.11MB Simrad multibeam processing format
0014_20030818_055326p.mb57.gz 21.9KB Simrad multibeam processing format
0014_20030818_065326p.mb57.gz 5.17MB Simrad multibeam processing format
0014_20030818_075326p.mb57.gz 5.12MB Simrad multibeam processing format
0014_20030818_085326p.mb57.gz 5.10MB Simrad multibeam processing format
0014_20030818_095326p.mb57.gz 5.13MB Simrad multibeam processing format
0014_20030818_105326p.mb57.gz 5.11MB Simrad multibeam processing format
0014_20030818_115326p.mb57.gz 4.99MB Simrad multibeam processing format
0014_20030818_125326p.mb57.gz 5.03MB Simrad multibeam processing format
0014_20030818_135326p.mb57.gz 5.08MB Simrad multibeam processing format
0014_20030818_145326p.mb57.gz 5.16MB Simrad multibeam processing format
0014_20030818_155326p.mb57.gz 5.12MB Simrad multibeam processing format
0014_20030818_165326p.mb57.gz 1.53MB Simrad multibeam processing format
0015_20030717_011622p.mb57.gz 6.47MB Simrad multibeam processing format
0015_20030717_021622p.mb57.gz 6.58MB Simrad multibeam processing format
0015_20030717_031622p.mb57.gz 6.63MB Simrad multibeam processing format
0015_20030717_041622p.mb57.gz 6.70MB Simrad multibeam processing format
0015_20030717_051622p.mb57.gz 6.73MB Simrad multibeam processing format
0015_20030717_061622p.mb57.gz 7.18MB Simrad multibeam processing format
0015_20030717_071622p.mb57.gz 7.33MB Simrad multibeam processing format
0015_20030717_081622p.mb57.gz 7.30MB Simrad multibeam processing format
0015_20030717_091622p.mb57.gz 6.56MB Simrad multibeam processing format
0015_20030717_101622p.mb57.gz 6.66MB Simrad multibeam processing format
0015_20030717_111622p.mb57.gz 6.42MB Simrad multibeam processing format
0015_20030717_121622p.mb57.gz 6.49MB Simrad multibeam processing format
0015_20030717_131622p.mb57.gz 7.70MB Simrad multibeam processing format
0015_20030717_141622p.mb57.gz 8.77MB Simrad multibeam processing format
0015_20030717_151622p.mb57.gz 6.61MB Simrad multibeam processing format
0015_20030717_161622p.mb57.gz 9.23MB Simrad multibeam processing format
0015_20030717_171622p.mb57.gz 8.25MB Simrad multibeam processing format
0015_20030717_181622p.mb57.gz 9.43MB Simrad multibeam processing format
0015_20030717_191622p.mb57.gz 8.05MB Simrad multibeam processing format
0015_20030717_201622p.mb57.gz 2.55MB Simrad multibeam processing format
0015_20030803_011125p.mb57.gz 5.22MB Simrad multibeam processing format
0015_20030803_021125p.mb57.gz 5.28MB Simrad multibeam processing format
0015_20030803_031125p.mb57.gz 5.22MB Simrad multibeam processing format
0015_20030803_041125p.mb57.gz 5.15MB Simrad multibeam processing format
0015_20030803_051125p.mb57.gz 2.64MB Simrad multibeam processing format
0015_20030819_013142p.mb57.gz 5.91MB Simrad multibeam processing format
0016_20030717_204115p.mb57.gz 13.46MB Simrad multibeam processing format
0016_20030717_214115p.mb57.gz 14.97MB Simrad multibeam processing format
0016_20030717_224115p.mb57.gz 13.02MB Simrad multibeam processing format
0016_20030717_234115p.mb57.gz 14.15MB Simrad multibeam processing format
0016_20030717_244115p.mb57.gz 12.96MB Simrad multibeam processing format
0016_20030805_033533p.mb57.gz 6.58MB Simrad multibeam processing format
0016_20030805_043533p.mb57.gz 6.59MB Simrad multibeam processing format
0016_20030805_053533p.mb57.gz 6.65MB Simrad multibeam processing format
0016_20030805_063533p.mb57.gz 6.70MB Simrad multibeam processing format
0016_20030805_073533p.mb57.gz 7.19MB Simrad multibeam processing format
0016_20030805_083533p.mb57.gz 7.43MB Simrad multibeam processing format
0016_20030805_093533p.mb57.gz 8.22MB Simrad multibeam processing format
0016_20030805_103533p.mb57.gz 8.19MB Simrad multibeam processing format
0016_20030805_113533p.mb57.gz 7.28MB Simrad multibeam processing format
0016_20030805_123533p.mb57.gz 6.67MB Simrad multibeam processing format
0016_20030805_13533_p.mb57.gz 7.39MB Simrad multibeam processing format
0016_20030805_14533_p.mb57.gz 5.06MB Simrad multibeam processing format
0016_20030819_024134p.mb57.gz 5.10MB Simrad multibeam processing format
0016_20030819_034134p.mb57.gz 5.18MB Simrad multibeam processing format
0016_20030819_044134p.mb57.gz 5.31MB Simrad multibeam processing format
0016_20030819_054134p.mb57.gz 5.40MB Simrad multibeam processing format
0016_20030819_064134p.mb57.gz 5.36MB Simrad multibeam processing format
0016_20030819_074134p.mb57.gz 5.34MB Simrad multibeam processing format
0016_20030819_084134p.mb57.gz 5.23MB Simrad multibeam processing format
0016_20030819_094134p.mb57.gz 5.24MB Simrad multibeam processing format
0016_20030819_104134p.mb57.gz 5.23MB Simrad multibeam processing format
0016_20030819_114134p.mb57.gz 5.26MB Simrad multibeam processing format
0016_20030819_124134p.mb57.gz 5.22MB Simrad multibeam processing format
0016_20030819_134134p.mb57.gz 5.19MB Simrad multibeam processing format
0016_20030819_144134p.mb57.gz 5.23MB Simrad multibeam processing format
0016_20030819_154134p.mb57.gz 5.25MB Simrad multibeam processing format
0017_20030720_065832p.mb57.gz 4.88MB Simrad multibeam processing format
0017_20030720_075832p.mb57.gz 4.83MB Simrad multibeam processing format
0017_20030720_085832p.mb57.gz 4.79MB Simrad multibeam processing format
0017_20030720_095832p.mb57.gz 4.78MB Simrad multibeam processing format
0017_20030720_105832p.mb57.gz 4.81MB Simrad multibeam processing format
0017_20030720_115832p.mb57.gz 4.78MB Simrad multibeam processing format
0017_20030720_125832p.mb57.gz 4.81MB Simrad multibeam processing format
0017_20030720_135832p.mb57.gz 4.88MB Simrad multibeam processing format
0017_20030720_145832p.mb57.gz 4.93MB Simrad multibeam processing format
0017_20030720_155832p.mb57.gz 4.89MB Simrad multibeam processing format
0017_20030720_165832p.mb57.gz 4.83MB Simrad multibeam processing format
0017_20030720_175832p.mb57.gz 4.87MB Simrad multibeam processing format
0017_20030720_185832p.mb57.gz 4.81MB Simrad multibeam processing format
0017_20030720_195832p.mb57.gz 4.78MB Simrad multibeam processing format
0017_20030720_205832p.mb57.gz 4.83MB Simrad multibeam processing format
0017_20030720_215832p.mb57.gz 1.12MB Simrad multibeam processing format
0017_20030806_192825p.mb57.gz 34.50MB Simrad multibeam processing format
0017_20030821_041958p.mb57.gz 5.58MB Simrad multibeam processing format
0017_20030821_052110p.mb57.gz 5.62MB Simrad multibeam processing format
0017_20030821_062222p.mb57.gz 5.56MB Simrad multibeam processing format
0017_20030821_072334p.mb57.gz 5.58MB Simrad multibeam processing format
0017_20030821_082446p.mb57.gz 5.57MB Simrad multibeam processing format
0017_20030821_092558p.mb57.gz 5.51MB Simrad multibeam processing format
0017_20030821_102710p.mb57.gz 5.50MB Simrad multibeam processing format
0017_20030821_112822p.mb57.gz 5.43MB Simrad multibeam processing format
0017_20030821_122934p.mb57.gz 5.41MB Simrad multibeam processing format
0017_20030821_133046p.mb57.gz 5.49MB Simrad multibeam processing format
0017_20030821_143158p.mb57.gz 5.50MB Simrad multibeam processing format
0018_20030720_221304p.mb57.gz 32.3KB Simrad multibeam processing format
0018_20030822_011956p.mb57.gz 4.25MB Simrad multibeam processing format
0019_20030807_020541p.mb57.gz 18.33MB Simrad multibeam processing format
001_20030728_005401_p.mb57.gz 4.86MB Simrad multibeam processing format
001_20030728_015401_p.mb57.gz 4.84MB Simrad multibeam processing format
001_20030728_025401_p.mb57.gz 4.99MB Simrad multibeam processing format
001_20030728_035401_p.mb57.gz 4.86MB Simrad multibeam processing format
001_20030728_045401_p.mb57.gz 4.93MB Simrad multibeam processing format
001_20030728_055401_p.mb57.gz 4.90MB Simrad multibeam processing format
001_20030728_065401_p.mb57.gz 4.89MB Simrad multibeam processing format
001_20030728_075401_p.mb57.gz 4.93MB Simrad multibeam processing format
001_20030728_085401_p.mb57.gz 4.83MB Simrad multibeam processing format
001_20030728_095401_p.mb57.gz 4.97MB Simrad multibeam processing format
001_20030728_105401_p.mb57.gz 4.97MB Simrad multibeam processing format
001_20030728_115401_p.mb57.gz 4.76MB Simrad multibeam processing format
001_20030728_125401_p.mb57.gz 4.99MB Simrad multibeam processing format
001_20030728_135401_p.mb57.gz 4.97MB Simrad multibeam processing format
001_20030728_145401_p.mb57.gz 4.93MB Simrad multibeam processing format
001_20030728_155401_p.mb57.gz 5.08MB Simrad multibeam processing format
001_20030728_165401_p.mb57.gz 5.00MB Simrad multibeam processing format
001_20030728_175401_p.mb57.gz 5.01MB Simrad multibeam processing format
001_20030728_185401_p.mb57.gz 4.39MB Simrad multibeam processing format
0020_20030807_052944p.mb57.gz 5.54MB Simrad multibeam processing format
0020_20030807_062944p.mb57.gz 5.57MB Simrad multibeam processing format
0020_20030807_072944p.mb57.gz 5.56MB Simrad multibeam processing format
0020_20030807_082944p.mb57.gz 5.56MB Simrad multibeam processing format
0020_20030807_092944p.mb57.gz 5.65MB Simrad multibeam processing format
0020_20030807_102944p.mb57.gz 5.34MB Simrad multibeam processing format
0020_20030807_112944p.mb57.gz 5.44MB Simrad multibeam processing format
0020_20030807_122944p.mb57.gz 5.63MB Simrad multibeam processing format
0020_20030807_132944p.mb57.gz 5.76MB Simrad multibeam processing format
0020_20030807_142944p.mb57.gz 5.73MB Simrad multibeam processing format
0020_20030807_152944p.mb57.gz 1.14MB Simrad multibeam processing format
0021_20030809_044720p.mb57.gz 5.20MB Simrad multibeam processing format
0021_20030809_054720p.mb57.gz 5.18MB Simrad multibeam processing format
0021_20030809_064720p.mb57.gz 5.23MB Simrad multibeam processing format
0021_20030809_074720p.mb57.gz 5.14MB Simrad multibeam processing format
0021_20030809_084720p.mb57.gz 5.15MB Simrad multibeam processing format
0021_20030809_094720p.mb57.gz 5.16MB Simrad multibeam processing format
0021_20030809_104720p.mb57.gz 5.08MB Simrad multibeam processing format
0021_20030809_114720p.mb57.gz 5.10MB Simrad multibeam processing format
0021_20030809_124720p.mb57.gz 5.32MB Simrad multibeam processing format
0021_20030809_134720p.mb57.gz 5.33MB Simrad multibeam processing format
0021_20030809_144720p.mb57.gz 5.39MB Simrad multibeam processing format
0021_20030809_154720p.mb57.gz 2.17MB Simrad multibeam processing format
0022_20030810_011501p.mb57.gz 34.71MB Simrad multibeam processing format
0022_20030810_011515p.mb57.gz 6.98MB Simrad multibeam processing format
0022_20030810_021515p.mb57.gz 7.37MB Simrad multibeam processing format
0022_20030810_031515p.mb57.gz 7.50MB Simrad multibeam processing format
0022_20030810_041515p.mb57.gz 7.71MB Simrad multibeam processing format
0022_20030810_051515p.mb57.gz 5.15MB Simrad multibeam processing format
0023_20030810_060551p.mb57.gz 415.8KB Simrad multibeam processing format
0025_20030810_060902p.mb57.gz 404.4KB Simrad multibeam processing format

Metadata Files: 386

Files File Size Description
CNTL13RR_Multibeam.xml NGDC created ISO metadata
0001_20030714_022301p.mb57.mif 15.4KB Metadata I?? File for each individual data file
0001_20030714_032449p.mb57.mif 15.4KB Metadata I?? File for each individual data file
0001_20030714_042637p.mb57.mif 15.4KB Metadata I?? File for each individual data file
0001_20030714_052825p.mb57.mif 15.4KB Metadata I?? File for each individual data file
0001_20030714_063013p.mb57.mif 15.4KB Metadata I?? File for each individual data file
0001_20030714_073201p.mb57.mif 15.4KB Metadata I?? File for each individual data file
0001_20030714_083349p.mb57.mif 15.4KB Metadata I?? File for each individual data file
0001_20030714_093537p.mb57.mif 15.4KB Metadata I?? File for each individual data file
0001_20030714_103725p.mb57.mif 15.4KB Metadata I?? File for each individual data file
0001_20030714_113913p.mb57.mif 15.4KB Metadata I?? File for each individual data file
0001_20030714_124101p.mb57.mif 15.4KB Metadata I?? File for each individual data file
0001_20030714_134249p.mb57.mif 15.4KB Metadata I?? File for each individual data file
0001_20030714_144437p.mb57.mif 15.4KB Metadata I?? File for each individual data file
0001_20030720_222436p.mb57.mif 15.4KB Metadata I?? File for each individual data file
0001_20030720_223234p.mb57.mif 15.4KB Metadata I?? File for each individual data file
0001_20030729_061944p.mb57.mif 15.4KB Metadata I?? File for each individual data file
0001_20030822_023323p.mb57.mif 15.4KB Metadata I?? File for each individual data file
0001_20030822_033623p.mb57.mif 15.4KB Metadata I?? File for each individual data file
0001_20030822_043923p.mb57.mif 15.4KB Metadata I?? File for each individual data file
0001_20030822_054223p.mb57.mif 15.4KB Metadata I?? File for each individual data file
0001_20030822_064523p.mb57.mif 15.4KB Metadata I?? File for each individual data file
0001_20030822_074823p.mb57.mif 15.4KB Metadata I?? File for each individual data file
0001_20030822_085123p.mb57.mif 15.4KB Metadata I?? File for each individual data file
0001_20030822_095423p.mb57.mif 15.4KB Metadata I?? File for each individual data file
0001_20030822_105723p.mb57.mif 15.4KB Metadata I?? File for each individual data file
0001_20030822_120023p.mb57.mif 15.4KB Metadata I?? File for each individual data file
0001_20030822_130323p.mb57.mif 15.4KB Metadata I?? File for each individual data file
0001_20030822_140623p.mb57.mif 15.4KB Metadata I?? File for each individual data file
0001_20030822_150923p.mb57.mif 15.4KB Metadata I?? File for each individual data file
0001_20030822_161223p.mb57.mif 15.4KB Metadata I?? File for each individual data file
0002_20030715_001630p.mb57.mif 15.4KB Metadata I?? File for each individual data file
0002_20030729_063731p.mb57.mif 15.4KB Metadata I?? File for each individual data file
0002_20030729_073731p.mb57.mif 15.4KB Metadata I?? File for each individual data file
0002_20030729_083731p.mb57.mif 15.4KB Metadata I?? File for each individual data file
0002_20030729_093731p.mb57.mif 15.4KB Metadata I?? File for each individual data file
0002_20030729_103731p.mb57.mif 15.4KB Metadata I?? File for each individual data file
0002_20030729_113731p.mb57.mif 15.4KB Metadata I?? File for each individual data file
0002_20030729_123731p.mb57.mif 15.4KB Metadata I?? File for each individual data file
0002_20030729_133731p.mb57.mif 15.4KB Metadata I?? File for each individual data file
0002_20030729_143731p.mb57.mif 15.4KB Metadata I?? File for each individual data file
0002_20030729_153731p.mb57.mif 15.4KB Metadata I?? File for each individual data file
0002_20030729_163731p.mb57.mif 15.4KB Metadata I?? File for each individual data file
0002_20030729_173943p.mb57.mif 15.4KB Metadata I?? File for each individual data file
0002_20030729_183731p.mb57.mif 15.4KB Metadata I?? File for each individual data file
0002_20030729_193731p.mb57.mif 15.4KB Metadata I?? File for each individual data file
0002_20030822_171724p.mb57.mif 15.4KB Metadata I?? File for each individual data file
0003_20030715_030439p.mb57.mif 15.4KB Metadata I?? File for each individual data file
0003_20030715_040546p.mb57.mif 15.4KB Metadata I?? File for each individual data file
0003_20030715_050653p.mb57.mif 15.4KB Metadata I?? File for each individual data file
0003_20030715_060800p.mb57.mif 15.4KB Metadata I?? File for each individual data file
0003_20030715_070907p.mb57.mif 15.4KB Metadata I?? File for each individual data file
0003_20030715_081014p.mb57.mif 15.4KB Metadata I?? File for each individual data file
0003_20030715_091121p.mb57.mif 15.4KB Metadata I?? File for each individual data file
0003_20030715_101228p.mb57.mif 15.4KB Metadata I?? File for each individual data file
0003_20030715_111335p.mb57.mif 15.4KB Metadata I?? File for each individual data file
0003_20030715_121442p.mb57.mif 15.4KB Metadata I?? File for each individual data file
0003_20030715_131549p.mb57.mif 15.4KB Metadata I?? File for each individual data file
0003_20030715_141656p.mb57.mif 15.4KB Metadata I?? File for each individual data file
0003_20030715_151803p.mb57.mif 15.4KB Metadata I?? File for each individual data file
0003_20030715_161910p.mb57.mif 15.4KB Metadata I?? File for each individual data file
0003_20030715_172017p.mb57.mif 15.4KB Metadata I?? File for each individual data file
0003_20030715_182124p.mb57.mif 15.4KB Metadata I?? File for each individual data file
0003_20030721_220924p.mb57.mif 15.4KB Metadata I?? File for each individual data file
0003_20030729_202043p.mb57.mif 15.4KB Metadata I?? File for each individual data file
0003_20030810_062124p.mb57.mif 15.4KB Metadata I?? File for each individual data file
0004_20030721_221052p.mb57.mif 15.4KB Metadata I?? File for each individual data file
0004_20030730_032837p.mb57.mif 15.4KB Metadata I?? File for each individual data file
0004_20030810_065243p.mb57.mif 15.4KB Metadata I?? File for each individual data file
0004_20030810_075243p.mb57.mif 15.4KB Metadata I?? File for each individual data file
0004_20030810_085243p.mb57.mif 15.4KB Metadata I?? File for each individual data file
0004_20030810_095243p.mb57.mif 15.4KB Metadata I?? File for each individual data file
0004_20030810_105243p.mb57.mif 15.4KB Metadata I?? File for each individual data file
0004_20030810_115243p.mb57.mif 15.4KB Metadata I?? File for each individual data file
0004_20030810_125243p.mb57.mif 15.4KB Metadata I?? File for each individual data file
0004_20030810_135243p.mb57.mif 15.4KB Metadata I?? File for each individual data file
0004_20030810_145243p.mb57.mif 15.4KB Metadata I?? File for each individual data file
0004_20030822_194557p.mb57.mif 15.4KB Metadata I?? File for each individual data file
0005_20030715_192328p.mb57.mif 15.4KB Metadata I?? File for each individual data file
0005_20030715_202328p.mb57.mif 15.4KB Metadata I?? File for each individual data file
0005_20030715_212328p.mb57.mif 15.4KB Metadata I?? File for each individual data file
0005_20030715_222328p.mb57.mif 15.4KB Metadata I?? File for each individual data file
0005_20030715_232328p.mb57.mif 15.4KB Metadata I?? File for each individual data file
0005_20030715_242328p.mb57.mif 15.4KB Metadata I?? File for each individual data file
0005_20030723_204700p.mb57.mif 15.4KB Metadata I?? File for each individual data file
0005_20030723_204703p.mb57.mif 15.4KB Metadata I?? File for each individual data file
0005_20030723_214703p.mb57.mif 15.4KB Metadata I?? File for each individual data file
0005_20030723_224703p.mb57.mif 15.4KB Metadata I?? File for each individual data file
0005_20030723_234703p.mb57.mif 15.4KB Metadata I?? File for each individual data file
0005_20030730_063744p.mb57.mif 15.4KB Metadata I?? File for each individual data file
0005_20030730_073744p.mb57.mif 15.4KB Metadata I?? File for each individual data file
0005_20030730_083744p.mb57.mif 15.4KB Metadata I?? File for each individual data file
0005_20030730_093744p.mb57.mif 15.4KB Metadata I?? File for each individual data file
0005_20030730_103744p.mb57.mif 15.4KB Metadata I?? File for each individual data file
0005_20030730_113744p.mb57.mif 15.4KB Metadata I?? File for each individual data file
0005_20030730_123744p.mb57.mif 15.4KB Metadata I?? File for each individual data file
0005_20030730_133744p.mb57.mif 15.4KB Metadata I?? File for each individual data file
0005_20030730_143744p.mb57.mif 15.4KB Metadata I?? File for each individual data file
0005_20030812_033516p.mb57.mif 15.4KB Metadata I?? File for each individual data file
0006_20030716_054753p.mb57.mif 15.4KB Metadata I?? File for each individual data file
0006_20030730_161206p.mb57.mif 15.4KB Metadata I?? File for each individual data file
0006_20030812_054844p.mb57.mif 15.4KB Metadata I?? File for each individual data file
0006_20030812_064844p.mb57.mif 15.4KB Metadata I?? File for each individual data file
0006_20030812_074844p.mb57.mif 15.4KB Metadata I?? File for each individual data file
0006_20030812_084844p.mb57.mif 15.4KB Metadata I?? File for each individual data file
0006_20030812_094844p.mb57.mif 15.4KB Metadata I?? File for each individual data file
0006_20030812_104844p.mb57.mif 15.4KB Metadata I?? File for each individual data file
0006_20030812_114844p.mb57.mif 15.4KB Metadata I?? File for each individual data file
0006_20030812_124844p.mb57.mif 15.4KB Metadata I?? File for each individual data file
0006_20030812_134844p.mb57.mif 15.4KB Metadata I?? File for each individual data file
0006_20030812_144844p.mb57.mif 15.4KB Metadata I?? File for each individual data file
0007_20030726_080921p.mb57.mif 15.4KB Metadata I?? File for each individual data file
0007_20030726_090921p.mb57.mif 15.4KB Metadata I?? File for each individual data file
0007_20030726_100921p.mb57.mif 15.4KB Metadata I?? File for each individual data file
0007_20030726_110921p.mb57.mif 15.4KB Metadata I?? File for each individual data file
0007_20030726_120921p.mb57.mif 15.4KB Metadata I?? File for each individual data file
0007_20030726_130921p.mb57.mif 15.4KB Metadata I?? File for each individual data file
0007_20030726_140921p.mb57.mif 15.4KB Metadata I?? File for each individual data file
0007_20030731_001306p.mb57.mif 15.4KB Metadata I?? File for each individual data file
0007_20030814_043754p.mb57.mif 15.4KB Metadata I?? File for each individual data file
0008_20030716_054815p.mb57.mif 15.4KB Metadata I?? File for each individual data file
0008_20030716_064815p.mb57.mif 15.4KB Metadata I?? File for each individual data file
0008_20030716_074815p.mb57.mif 15.4KB Metadata I?? File for each individual data file
0008_20030716_084815p.mb57.mif 15.4KB Metadata I?? File for each individual data file
0008_20030716_094815p.mb57.mif 15.4KB Metadata I?? File for each individual data file
0008_20030716_104815p.mb57.mif 15.4KB Metadata I?? File for each individual data file
0008_20030716_114815p.mb57.mif 15.4KB Metadata I?? File for each individual data file
0008_20030716_124815p.mb57.mif 15.4KB Metadata I?? File for each individual data file
0008_20030716_134815p.mb57.mif 15.4KB Metadata I?? File for each individual data file
0008_20030716_144815p.mb57.mif 15.4KB Metadata I?? File for each individual data file
0008_20030716_154815p.mb57.mif 15.4KB Metadata I?? File for each individual data file
0008_20030716_164815p.mb57.mif 15.4KB Metadata I?? File for each individual data file
0008_20030726_172257p.mb57.mif 15.4KB Metadata I?? File for each individual data file
0008_20030731_033119p.mb57.mif 15.4KB Metadata I?? File for each individual data file
0008_20030814_055227p.mb57.mif 15.4KB Metadata I?? File for each individual data file
0008_20030814_065227p.mb57.mif 15.4KB Metadata I?? File for each individual data file
0008_20030814_075227p.mb57.mif 15.4KB Metadata I?? File for each individual data file
0008_20030814_085227p.mb57.mif 15.4KB Metadata I?? File for each individual data file
0008_20030814_095227p.mb57.mif 15.4KB Metadata I?? File for each individual data file
0008_20030814_105227p.mb57.mif 15.4KB Metadata I?? File for each individual data file
0008_20030814_115227p.mb57.mif 15.4KB Metadata I?? File for each individual data file
0008_20030814_125227p.mb57.mif 15.4KB Metadata I?? File for each individual data file
0008_20030814_135227p.mb57.mif 15.4KB Metadata I?? File for each individual data file
0008_20030814_145227p.mb57.mif 15.4KB Metadata I?? File for each individual data file
0009_20030726_181932p.mb57.mif 15.4KB Metadata I?? File for each individual data file
0009_20030731_035041p.mb57.mif 15.4KB Metadata I?? File for each individual data file
0009_20030815_040558p.mb57.mif 15.4KB Metadata I?? File for each individual data file
0009_20030815_050558p.mb57.mif 15.4KB Metadata I?? File for each individual data file
0009_20030815_060558p.mb57.mif 15.4KB Metadata I?? File for each individual data file
0009_20030815_070558p.mb57.mif 15.4KB Metadata I?? File for each individual data file
0009_20030815_080558p.mb57.mif 15.4KB Metadata I?? File for each individual data file
0009_20030815_090558p.mb57.mif 15.4KB Metadata I?? File for each individual data file
0009_20030815_100558p.mb57.mif 15.4KB Metadata I?? File for each individual data file
0009_20030815_110558p.mb57.mif 15.4KB Metadata I?? File for each individual data file
0009_20030815_120558p.mb57.mif 15.4KB Metadata I?? File for each individual data file
0009_20030815_130558p.mb57.mif 15.4KB Metadata I?? File for each individual data file
0009_20030815_140558p.mb57.mif 15.4KB Metadata I?? File for each individual data file
0009_20030815_150558p.mb57.mif 15.4KB Metadata I?? File for each individual data file
0010_20030716_180714p.mb57.mif 15.4KB Metadata I?? File for each individual data file
0010_20030727_020300p.mb57.mif 15.4KB Metadata I?? File for each individual data file
0010_20030727_030000p.mb57.mif 15.4KB Metadata I?? File for each individual data file
0010_20030727_040000p.mb57.mif 15.4KB Metadata I?? File for each individual data file
0010_20030727_050000p.mb57.mif 15.4KB Metadata I?? File for each individual data file
0010_20030727_060000p.mb57.mif 15.4KB Metadata I?? File for each individual data file
0010_20030727_070000p.mb57.mif 15.4KB Metadata I?? File for each individual data file
0010_20030727_080000p.mb57.mif 15.4KB Metadata I?? File for each individual data file
0010_20030727_090000p.mb57.mif 15.4KB Metadata I?? File for each individual data file
0010_20030727_100000p.mb57.mif 15.4KB Metadata I?? File for each individual data file
0010_20030727_110000p.mb57.mif 15.4KB Metadata I?? File for each individual data file
0010_20030727_120000p.mb57.mif 15.4KB Metadata I?? File for each individual data file
0010_20030727_130000p.mb57.mif 15.4KB Metadata I?? File for each individual data file
0010_20030727_140000p.mb57.mif 15.4KB Metadata I?? File for each individual data file
0010_20030727_150000p.mb57.mif 15.4KB Metadata I?? File for each individual data file
0010_20030727_160000p.mb57.mif 15.4KB Metadata I?? File for each individual data file
0010_20030727_170000p.mb57.mif 15.4KB Metadata I?? File for each individual data file
0010_20030727_180000p.mb57.mif 15.4KB Metadata I?? File for each individual data file
0010_20030731_070307p.mb57.mif 15.4KB Metadata I?? File for each individual data file
0010_20030731_080307p.mb57.mif 15.4KB Metadata I?? File for each individual data file
0010_20030731_090307p.mb57.mif 15.4KB Metadata I?? File for each individual data file
0010_20030731_100307p.mb57.mif 15.4KB Metadata I?? File for each individual data file
0010_20030731_110307p.mb57.mif 15.4KB Metadata I?? File for each individual data file
0010_20030731_120307p.mb57.mif 15.4KB Metadata I?? File for each individual data file
0010_20030731_130307p.mb57.mif 15.4KB Metadata I?? File for each individual data file
0010_20030731_140307p.mb57.mif 15.4KB Metadata I?? File for each individual data file
0010_20030731_150307p.mb57.mif 15.4KB Metadata I?? File for each individual data file
0010_20030731_160307p.mb57.mif 15.4KB Metadata I?? File for each individual data file
0010_20030731_170307p.mb57.mif 15.4KB Metadata I?? File for each individual data file
0010_20030731_180307p.mb57.mif 15.4KB Metadata I?? File for each individual data file
0010_20030731_190307p.mb57.mif 15.4KB Metadata I?? File for each individual data file
0011_20030716_195453p.mb57.mif 15.4KB Metadata I?? File for each individual data file
0011_20030801_032740p.mb57.mif 15.4KB Metadata I?? File for each individual data file
0011_20030801_042740p.mb57.mif 15.4KB Metadata I?? File for each individual data file
0011_20030801_052740p.mb57.mif 15.4KB Metadata I?? File for each individual data file
0011_20030801_062740p.mb57.mif 15.4KB Metadata I?? File for each individual data file
0011_20030801_072740p.mb57.mif 15.4KB Metadata I?? File for each individual data file
0011_20030801_082740p.mb57.mif 15.4KB Metadata I?? File for each individual data file
0011_20030801_092740p.mb57.mif 15.4KB Metadata I?? File for each individual data file
0011_20030801_102740p.mb57.mif 15.4KB Metadata I?? File for each individual data file
0011_20030801_112740p.mb57.mif 15.4KB Metadata I?? File for each individual data file
0011_20030801_122740p.mb57.mif 15.4KB Metadata I?? File for each individual data file
0011_20030801_132740p.mb57.mif 15.4KB Metadata I?? File for each individual data file
0011_20030801_142740p.mb57.mif 15.4KB Metadata I?? File for each individual data file
0011_20030801_152740p.mb57.mif 15.4KB Metadata I?? File for each individual data file
0011_20030801_162740p.mb57.mif 15.4KB Metadata I?? File for each individual data file
0011_20030816_203528p.mb57.mif 15.4KB Metadata I?? File for each individual data file
0011_20030816_213528p.mb57.mif 15.4KB Metadata I?? File for each individual data file
0011_20030816_223528p.mb57.mif 15.4KB Metadata I?? File for each individual data file
0011_20030816_233528p.mb57.mif 15.4KB Metadata I?? File for each individual data file
0011_20030816_243528p.mb57.mif 15.4KB Metadata I?? File for each individual data file
0012_20030716_234623p.mb57.mif 15.4KB Metadata I?? File for each individual data file
0012_20030729_013712p.mb57.mif 15.4KB Metadata I?? File for each individual data file
0012_20030817_045531p.mb57.mif 15.4KB Metadata I?? File for each individual data file
0013_20030802_041039p.mb57.mif 15.4KB Metadata I?? File for each individual data file
0013_20030802_051039p.mb57.mif 15.4KB Metadata I?? File for each individual data file
0013_20030802_061039p.mb57.mif 15.4KB Metadata I?? File for each individual data file
0013_20030802_071039p.mb57.mif 15.4KB Metadata I?? File for each individual data file
0013_20030802_081039p.mb57.mif 15.4KB Metadata I?? File for each individual data file
0013_20030802_091039p.mb57.mif 15.4KB Metadata I?? File for each individual data file
0013_20030802_101039p.mb57.mif 15.4KB Metadata I?? File for each individual data file
0013_20030802_111039p.mb57.mif 15.4KB Metadata I?? File for each individual data file
0013_20030802_121039p.mb57.mif 15.4KB Metadata I?? File for each individual data file
0013_20030802_131039p.mb57.mif 15.4KB Metadata I?? File for each individual data file
0013_20030802_141039p.mb57.mif 15.4KB Metadata I?? File for each individual data file
0013_20030802_151039p.mb57.mif 15.4KB Metadata I?? File for each individual data file
0013_20030802_161039p.mb57.mif 15.4KB Metadata I?? File for each individual data file
0013_20030802_171039p.mb57.mif 15.4KB Metadata I?? File for each individual data file
0013_20030817_083726p.mb57.mif 15.4KB Metadata I?? File for each individual data file
0013_20030817_093726p.mb57.mif 15.4KB Metadata I?? File for each individual data file
0013_20030817_103726p.mb57.mif 15.4KB Metadata I?? File for each individual data file
0013_20030817_113726p.mb57.mif 15.4KB Metadata I?? File for each individual data file
0013_20030817_123726p.mb57.mif 15.4KB Metadata I?? File for each individual data file
0013_20030817_133726p.mb57.mif 15.4KB Metadata I?? File for each individual data file
0013_20030817_143726p.mb57.mif 15.4KB Metadata I?? File for each individual data file
0014_20030818_035326p.mb57.mif 15.4KB Metadata I?? File for each individual data file
0014_20030818_045326p.mb57.mif 15.4KB Metadata I?? File for each individual data file
0014_20030818_055326p.mb57.mif 15.4KB Metadata I?? File for each individual data file
0014_20030818_065326p.mb57.mif 15.4KB Metadata I?? File for each individual data file
0014_20030818_075326p.mb57.mif 15.4KB Metadata I?? File for each individual data file
0014_20030818_085326p.mb57.mif 15.4KB Metadata I?? File for each individual data file
0014_20030818_095326p.mb57.mif 15.4KB Metadata I?? File for each individual data file
0014_20030818_105326p.mb57.mif 15.4KB Metadata I?? File for each individual data file
0014_20030818_115326p.mb57.mif 15.4KB Metadata I?? File for each individual data file
0014_20030818_125326p.mb57.mif 15.4KB Metadata I?? File for each individual data file
0014_20030818_135326p.mb57.mif 15.4KB Metadata I?? File for each individual data file
0014_20030818_145326p.mb57.mif 15.4KB Metadata I?? File for each individual data file
0014_20030818_155326p.mb57.mif 15.4KB Metadata I?? File for each individual data file
0014_20030818_165326p.mb57.mif 15.4KB Metadata I?? File for each individual data file
0015_20030717_011622p.mb57.mif 15.4KB Metadata I?? File for each individual data file
0015_20030717_021622p.mb57.mif 15.4KB Metadata I?? File for each individual data file
0015_20030717_031622p.mb57.mif 15.4KB Metadata I?? File for each individual data file
0015_20030717_041622p.mb57.mif 15.4KB Metadata I?? File for each individual data file
0015_20030717_051622p.mb57.mif 15.4KB Metadata I?? File for each individual data file
0015_20030717_061622p.mb57.mif 15.4KB Metadata I?? File for each individual data file
0015_20030717_071622p.mb57.mif 15.4KB Metadata I?? File for each individual data file
0015_20030717_081622p.mb57.mif 15.4KB Metadata I?? File for each individual data file
0015_20030717_091622p.mb57.mif 15.4KB Metadata I?? File for each individual data file
0015_20030717_101622p.mb57.mif 15.4KB Metadata I?? File for each individual data file
0015_20030717_111622p.mb57.mif 15.4KB Metadata I?? File for each individual data file
0015_20030717_121622p.mb57.mif 15.4KB Metadata I?? File for each individual data file
0015_20030717_131622p.mb57.mif 15.4KB Metadata I?? File for each individual data file
0015_20030717_141622p.mb57.mif 15.4KB Metadata I?? File for each individual data file
0015_20030717_151622p.mb57.mif 15.4KB Metadata I?? File for each individual data file
0015_20030717_161622p.mb57.mif 15.4KB Metadata I?? File for each individual data file
0015_20030717_171622p.mb57.mif 15.4KB Metadata I?? File for each individual data file
0015_20030717_181622p.mb57.mif 15.4KB Metadata I?? File for each individual data file
0015_20030717_191622p.mb57.mif 15.4KB Metadata I?? File for each individual data file
0015_20030717_201622p.mb57.mif 15.4KB Metadata I?? File for each individual data file
0015_20030803_011125p.mb57.mif 15.4KB Metadata I?? File for each individual data file
0015_20030803_021125p.mb57.mif 15.4KB Metadata I?? File for each individual data file
0015_20030803_031125p.mb57.mif 15.4KB Metadata I?? File for each individual data file
0015_20030803_041125p.mb57.mif 15.4KB Metadata I?? File for each individual data file
0015_20030803_051125p.mb57.mif 15.4KB Metadata I?? File for each individual data file
0015_20030819_013142p.mb57.mif 15.4KB Metadata I?? File for each individual data file
0016_20030717_204115p.mb57.mif 15.4KB Metadata I?? File for each individual data file
0016_20030717_214115p.mb57.mif 15.4KB Metadata I?? File for each individual data file
0016_20030717_224115p.mb57.mif 15.4KB Metadata I?? File for each individual data file
0016_20030717_234115p.mb57.mif 15.4KB Metadata I?? File for each individual data file
0016_20030717_244115p.mb57.mif 15.4KB Metadata I?? File for each individual data file
0016_20030805_033533p.mb57.mif 15.4KB Metadata I?? File for each individual data file
0016_20030805_043533p.mb57.mif 15.4KB Metadata I?? File for each individual data file
0016_20030805_053533p.mb57.mif 15.4KB Metadata I?? File for each individual data file
0016_20030805_063533p.mb57.mif 15.4KB Metadata I?? File for each individual data file
0016_20030805_073533p.mb57.mif 15.4KB Metadata I?? File for each individual data file
0016_20030805_083533p.mb57.mif 15.4KB Metadata I?? File for each individual data file
0016_20030805_093533p.mb57.mif 15.4KB Metadata I?? File for each individual data file
0016_20030805_103533p.mb57.mif 15.4KB Metadata I?? File for each individual data file
0016_20030805_113533p.mb57.mif 15.4KB Metadata I?? File for each individual data file
0016_20030805_123533p.mb57.mif 15.4KB Metadata I?? File for each individual data file
0016_20030805_13533_p.mb57.mif 15.4KB Metadata I?? File for each individual data file
0016_20030805_14533_p.mb57.mif 15.4KB Metadata I?? File for each individual data file
0016_20030819_024134p.mb57.mif 15.4KB Metadata I?? File for each individual data file
0016_20030819_034134p.mb57.mif 15.4KB Metadata I?? File for each individual data file
0016_20030819_044134p.mb57.mif 15.4KB Metadata I?? File for each individual data file
0016_20030819_054134p.mb57.mif 15.4KB Metadata I?? File for each individual data file
0016_20030819_064134p.mb57.mif 15.4KB Metadata I?? File for each individual data file
0016_20030819_074134p.mb57.mif 15.4KB Metadata I?? File for each individual data file
0016_20030819_084134p.mb57.mif 15.4KB Metadata I?? File for each individual data file
0016_20030819_094134p.mb57.mif 15.4KB Metadata I?? File for each individual data file
0016_20030819_104134p.mb57.mif 15.4KB Metadata I?? File for each individual data file
0016_20030819_114134p.mb57.mif 15.4KB Metadata I?? File for each individual data file
0016_20030819_124134p.mb57.mif 15.4KB Metadata I?? File for each individual data file
0016_20030819_134134p.mb57.mif 15.4KB Metadata I?? File for each individual data file
0016_20030819_144134p.mb57.mif 15.4KB Metadata I?? File for each individual data file
0016_20030819_154134p.mb57.mif 15.4KB Metadata I?? File for each individual data file
0017_20030720_065832p.mb57.mif 15.4KB Metadata I?? File for each individual data file
0017_20030720_075832p.mb57.mif 15.4KB Metadata I?? File for each individual data file
0017_20030720_085832p.mb57.mif 15.4KB Metadata I?? File for each individual data file
0017_20030720_095832p.mb57.mif 15.4KB Metadata I?? File for each individual data file
0017_20030720_105832p.mb57.mif 15.4KB Metadata I?? File for each individual data file
0017_20030720_115832p.mb57.mif 15.4KB Metadata I?? File for each individual data file
0017_20030720_125832p.mb57.mif 15.4KB Metadata I?? File for each individual data file
0017_20030720_135832p.mb57.mif 15.4KB Metadata I?? File for each individual data file
0017_20030720_145832p.mb57.mif 15.4KB Metadata I?? File for each individual data file
0017_20030720_155832p.mb57.mif 15.4KB Metadata I?? File for each individual data file
0017_20030720_165832p.mb57.mif 15.4KB Metadata I?? File for each individual data file
0017_20030720_175832p.mb57.mif 15.4KB Metadata I?? File for each individual data file
0017_20030720_185832p.mb57.mif 15.4KB Metadata I?? File for each individual data file
0017_20030720_195832p.mb57.mif 15.4KB Metadata I?? File for each individual data file
0017_20030720_205832p.mb57.mif 15.4KB Metadata I?? File for each individual data file
0017_20030720_215832p.mb57.mif 15.4KB Metadata I?? File for each individual data file
0017_20030806_192825p.mb57.mif 15.4KB Metadata I?? File for each individual data file
0017_20030821_041958p.mb57.mif 15.4KB Metadata I?? File for each individual data file
0017_20030821_052110p.mb57.mif 15.4KB Metadata I?? File for each individual data file
0017_20030821_062222p.mb57.mif 15.4KB Metadata I?? File for each individual data file
0017_20030821_072334p.mb57.mif 15.4KB Metadata I?? File for each individual data file
0017_20030821_082446p.mb57.mif 15.4KB Metadata I?? File for each individual data file
0017_20030821_092558p.mb57.mif 15.4KB Metadata I?? File for each individual data file
0017_20030821_102710p.mb57.mif 15.4KB Metadata I?? File for each individual data file
0017_20030821_112822p.mb57.mif 15.4KB Metadata I?? File for each individual data file
0017_20030821_122934p.mb57.mif 15.4KB Metadata I?? File for each individual data file
0017_20030821_133046p.mb57.mif 15.4KB Metadata I?? File for each individual data file
0017_20030821_143158p.mb57.mif 15.4KB Metadata I?? File for each individual data file
0018_20030720_221304p.mb57.mif 15.4KB Metadata I?? File for each individual data file
0018_20030822_011956p.mb57.mif 15.4KB Metadata I?? File for each individual data file
0019_20030807_020541p.mb57.mif 15.4KB Metadata I?? File for each individual data file
001_20030728_005401_p.mb57.mif 15.4KB Metadata I?? File for each individual data file
001_20030728_015401_p.mb57.mif 15.4KB Metadata I?? File for each individual data file
001_20030728_025401_p.mb57.mif 15.4KB Metadata I?? File for each individual data file
001_20030728_035401_p.mb57.mif 15.4KB Metadata I?? File for each individual data file
001_20030728_045401_p.mb57.mif 15.4KB Metadata I?? File for each individual data file
001_20030728_055401_p.mb57.mif 15.4KB Metadata I?? File for each individual data file
001_20030728_065401_p.mb57.mif 15.4KB Metadata I?? File for each individual data file
001_20030728_075401_p.mb57.mif 15.4KB Metadata I?? File for each individual data file
001_20030728_085401_p.mb57.mif 15.4KB Metadata I?? File for each individual data file
001_20030728_095401_p.mb57.mif 15.4KB Metadata I?? File for each individual data file
001_20030728_105401_p.mb57.mif 15.4KB Metadata I?? File for each individual data file
001_20030728_115401_p.mb57.mif 15.4KB Metadata I?? File for each individual data file
001_20030728_125401_p.mb57.mif 15.4KB Metadata I?? File for each individual data file
001_20030728_135401_p.mb57.mif 15.4KB Metadata I?? File for each individual data file
001_20030728_145401_p.mb57.mif 15.4KB Metadata I?? File for each individual data file
001_20030728_155401_p.mb57.mif 15.4KB Metadata I?? File for each individual data file
001_20030728_165401_p.mb57.mif 15.4KB Metadata I?? File for each individual data file
001_20030728_175401_p.mb57.mif 15.4KB Metadata I?? File for each individual data file
001_20030728_185401_p.mb57.mif 15.4KB Metadata I?? File for each individual data file
0020_20030807_052944p.mb57.mif 15.4KB Metadata I?? File for each individual data file
0020_20030807_062944p.mb57.mif 15.4KB Metadata I?? File for each individual data file
0020_20030807_072944p.mb57.mif 15.4KB Metadata I?? File for each individual data file
0020_20030807_082944p.mb57.mif 15.4KB Metadata I?? File for each individual data file
0020_20030807_092944p.mb57.mif 15.4KB Metadata I?? File for each individual data file
0020_20030807_102944p.mb57.mif 15.4KB Metadata I?? File for each individual data file
0020_20030807_112944p.mb57.mif 15.4KB Metadata I?? File for each individual data file
0020_20030807_122944p.mb57.mif 15.4KB Metadata I?? File for each individual data file
0020_20030807_132944p.mb57.mif 15.4KB Metadata I?? File for each individual data file
0020_20030807_142944p.mb57.mif 15.4KB Metadata I?? File for each individual data file
0020_20030807_152944p.mb57.mif 15.4KB Metadata I?? File for each individual data file
0021_20030809_044720p.mb57.mif 15.4KB Metadata I?? File for each individual data file
0021_20030809_054720p.mb57.mif 15.4KB Metadata I?? File for each individual data file
0021_20030809_064720p.mb57.mif 15.4KB Metadata I?? File for each individual data file
0021_20030809_074720p.mb57.mif 15.4KB Metadata I?? File for each individual data file
0021_20030809_084720p.mb57.mif 15.4KB Metadata I?? File for each individual data file
0021_20030809_094720p.mb57.mif 15.4KB Metadata I?? File for each individual data file
0021_20030809_104720p.mb57.mif 15.4KB Metadata I?? File for each individual data file
0021_20030809_114720p.mb57.mif 15.4KB Metadata I?? File for each individual data file
0021_20030809_124720p.mb57.mif 15.4KB Metadata I?? File for each individual data file
0021_20030809_134720p.mb57.mif 15.4KB Metadata I?? File for each individual data file
0021_20030809_144720p.mb57.mif 15.4KB Metadata I?? File for each individual data file
0021_20030809_154720p.mb57.mif 15.4KB Metadata I?? File for each individual data file
0022_20030810_011501p.mb57.mif 15.4KB Metadata I?? File for each individual data file
0022_20030810_011515p.mb57.mif 15.4KB Metadata I?? File for each individual data file
0022_20030810_021515p.mb57.mif 15.4KB Metadata I?? File for each individual data file
0022_20030810_031515p.mb57.mif 15.4KB Metadata I?? File for each individual data file
0022_20030810_041515p.mb57.mif 15.4KB Metadata I?? File for each individual data file
0022_20030810_051515p.mb57.mif 15.4KB Metadata I?? File for each individual data file
0023_20030810_060551p.mb57.mif 15.4KB Metadata I?? File for each individual data file
0025_20030810_060902p.mb57.mif 15.4KB Metadata I?? File for each individual data file
CNTL13RR.pdf 0.79MB PDF metadata file